NOAA 17 DEB

基本信息
目录编号:
48745
目录名称:
NOAA 17 DEB
国际标识:
2002-032CE
轨道中心:
EARTH
物体状态:
已陨落(2026-07-03)
发射日期:
2002-06-24 UTC
轨道信息
数据来源: 国际轨道数据
星历时间: 2026-06-22T03:21:34+0800
半长轴: 6755.024km
偏心率: 0.0024771
轨道倾角: 98.832°
近地点辐角: 268.086°
升交点赤经: 282.974°
平近点角: 91.756°
近地点: 360.154km
远地点: 393.62km
周期: 92.087分钟
每日圈数: 15.637325
详细信息
发射场:
AFWTR
轨道高度:
LEO
数据来源:
AOE Integration Group
参考系:
TEME
时间系统:
UTC
历元类型:
SGP4
2D轨道图
3D轨道图
轨道高度分析图
轨道倾角分析图
轨道综合分析图
查看轨道综合分析图